VE2JOS-13 Weather Reports


time (UTC)temp
F
wind
direction
speed
knots
gust
knots
rain 1hr
in
rain 24hr
in
rain mn
in
humidity
%
barometer
mb
20260510175633 64 260 0.0 0.9 0.00 0.00 0.00 3
20260510173743 65 244 2.6 3.5 0.00 0.00 0.00 3
20260510171843 65 75 3.5 2.6 0.00 0.00 0.00 3
20260510165858 65 253 2.6 3.5 0.00 0.00 0.00 3
20260510164221 65 286 1.7 1.7 0.00 0.00 0.00 3
20260510162522 64 270 2.6 2.6 0.00 0.00 0.00 4
20260510160628 64 257 1.7 3.5 0.00 0.00 0.00 4
20260510154653 63 40 3.5 3.5 0.00 0.00 0.00 4
20260510153006 63 227 1.7 1.7 0.00 0.00 0.00 4
20260510151246 63 225 3.5 6.1 0.00 0.00 0.00 4
20260510145403 64 335 0.9 1.7 0.00 0.00 0.00 5
20260510143447 62 280 0.9 1.7 0.00 0.00 0.00 5
20260510141826 62 274 1.7 1.7 0.00 0.00 0.00 5
20260510140133 62 285 2.6 6.1 0.00 0.00 0.00 5
20260510134247 62 0 0.0 0.9 0.00 0.00 0.00 6
20260510130813 60 257 2.6 1.7 0.00 0.00 0.00 6
20260510123237 57 225 0.0 1.7 0.00 0.00 0.00 7
20260510121633 56 257 0.9 0.9 0.00 0.00 0.00 7
20260510115958 55 265 0.0 0.9 0.00 0.00 0.00 7
20260510114226 55 0 0.0 0.0 0.00 0.00 0.00 8
20260510112433 55 266 0.0 0.0 0.00 0.00 0.00 8
20260510110833 53 0 0.0 0.0 0.00 0.00 0.00 8
20260510105013 53 0 0.0 0.0 0.00 0.00 0.00 9
20260510103258 53 252 4.3 7.8 0.00 0.00 0.00 9
20260510101658 53 253 0.0 0.9 0.00 0.00 0.00 9
20260510100017 52 256 0.0 0.0 0.00 0.00 0.00 9
20260510094413 53 243 0.9 0.9 0.00 0.00 0.00 9
20260510092538 53 260 1.7 2.6 0.00 0.00 0.00 9
20260510090847 53 258 0.9 1.7 0.00 0.00 0.00 9
20260510084903 52 253 0.9 0.9 0.00 0.00 0.00 9
20260510083053 52 209 0.9 2.6 0.00 0.00 0.00 9
20260510081317 52 245 0.9 1.7 0.00 0.00 0.00 9
20260510075427 52 214 0.9 1.7 0.00 0.00 0.00 9
20260510073653 51 111 1.7 2.6 0.00 0.00 0.00 9
20260510071933 51 217 2.6 7.0 0.03 0.00 0.00 9
20260510070158 51 183 2.6 3.5 0.05 0.00 0.00 9
20260510064433 51 170 0.9 6.1 0.05 0.00 0.00 9
20260510062613 51 250 1.7 0.9 0.04 0.00 0.00 9
20260510060846 52 130 1.7 1.7 0.00 0.00 0.00 8
20260510055058 53 187 0.9 2.6 0.00 0.00 0.00 7
20260510053106 52 233 1.7 0.9 0.00 0.00 0.00 8
20260510051228 51 257 0.9 0.9 0.00 0.00 0.00 7
20260510045528 51 226 0.9 3.5 0.00 0.00 0.00 7
20260510043928 51 95 0.9 1.7 0.00 0.00 0.00 7
20260510042058 51 180 1.7 3.5 0.00 0.00 0.00 7
20260510040303 51 273 0.9 1.7 0.00 0.00 0.00 7
20260510034313 51 239 1.7 2.6 0.00 0.00 0.00 7
20260510032703 52 260 0.9 3.5 0.00 0.00 0.00 7
20260510031043 52 141 1.7 3.5 0.00 0.00 0.00 7
20260510025058 53 262 0.0 0.0 0.00 0.00 0.00 7
20260510023313 53 91 0.9 1.7 0.00 0.00 0.00 7
20260510021437 53 199 1.7 2.6 0.00 0.00 0.00 7
20260510021403 53 199 1.7 2.6 0.00 0.00 0.00 7
20260510015748 54 85 0.9 1.7 0.00 0.00 0.00 7
20260510013953 54 240 2.6 4.3 0.00 0.00 0.00 6
20260510012317 55 99 2.6 3.5 0.00 0.00 0.00 6
20260510010613 55 256 0.9 1.7 0.00 0.00 0.00 6
20260510004923 55 242 0.9 0.9 0.00 0.00 0.00 6
20260510002958 56 248 1.7 3.5 0.00 0.00 0.00 6
20260510001431 57 250 3.5 5.2 0.00 0.00 0.00 6
20260510001343 57 250 3.5 5.2 0.00 0.00 0.00 6
20260509235738 58 246 1.7 0.9 0.00 0.00 0.00 6
20260509234033 59 135 5.2 6.1 0.00 0.00 0.00 5
20260509232424 60 253 0.9 1.7 0.00 0.00 0.00 5
20260509230513 61 153 0.9 3.5 0.00 0.00 0.00 5
20260509224558 62 131 0.9 2.6 0.00 0.00 0.00 4
20260509222738 64 263 0.9 0.9 0.00 0.00 0.00 4
20260509221053 65 123 1.7 4.3 0.00 0.00 0.00 3
20260509215103 66 245 0.9 1.7 0.00 0.00 0.00 3
20260509213143 66 110 0.9 0.0 0.00 0.00 0.00 3
20260509211253 67 244 1.7 4.3 0.00 0.00 0.00 2
20260509205541 67 260 4.3 6.1 0.00 0.00 0.00 2
20260509203637 67 172 2.6 3.5 0.00 0.00 0.00 2
20260509201903 66 246 2.6 1.7 0.00 0.00 0.00 2
20260509195932 66 70 2.6 3.5 0.00 0.00 0.00 2
20260509194355 67 122 0.9 2.6 0.00 0.00 0.00 2
20260509194316 67 122 0.9 2.6 0.00 0.00 0.00 2
20260509192428 68 100 4.3 6.1 0.00 0.00 0.00 2
20260509190833 68 252 1.7 5.2 0.00 0.00 0.00 2
20260509185038 68 88 3.5 6.1 0.00 0.00 0.00 2
20260509183223 68 259 0.9 1.7 0.00 0.00 0.00 2
20260509181354 69 0 0.0 0.0 0.00 0.00 0.00 2